Flag for U.S.A. Weather past 2 weeks in Cupertino, California, U.S.A.

Now
47 °F

Clear.


Feels Like: 47 °F
Forecast: 44 / 61 °F
Wind: No wind

Location: Moffett Field

Current Time: Mar 1, 2015 at 1:02:53 AM

Latest Report: Feb 28, 2015 at 11:56 PM


Visibility: 10 mi

Pressure: 29.94 "Hg

Humidity: 86%

Dew point: 43 °F

Location of CupertinoLocation

Historic Weather in Cupertino — Graph

°F

Cupertino temperature yesterday

Maximum temperature yesterday: 59 °F (at 2:56 PM)
Minimum temperature yesterday: 46 °F (at 4:56 AM)
Average temperature yesterday: 52 °F

Past Weeks' High & Low Weather Summary

 TemperatureHumidityPressure
High74 °F (Feb 15, 2:56 PM)90% (Feb 14, 6:56 AM)30.38 "Hg (Feb 14, 6:56 AM)
Low38 °F (Feb 24, 6:56 AM)17% (Feb 24, 11:56 AM)29.75 "Hg (Feb 28, 3:56 AM)
Average56 °F67%30.05 "Hg
* Reported Feb 13 11:56 PM — Feb 28 11:56 PM, Cupertino, Weather by CustomWeather, © 2015

Note: Actual official high and low records may vary slightly from our data, if they occured in-between our weather recording intervals... More about our weather records

Advertising

Cupertino weather history for previous 24 hours

 ConditionsComfort  
Time TempWeatherWind HumidityBarometerVisibility
11:56 PM
Sat, Feb 28
47 °FClear.No wind86%29.94 "Hg10 mi
10:56 PM48 °FClear.No wind86%29.93 "Hg10 mi
9:56 PM50 °FClear.No wind86%29.92 "Hg10 mi
8:56 PM51 °FClear.3 mph80%29.90 "Hg10 mi
7:56 PM51 °FMostly cloudy.No wind80%29.89 "Hg10 mi
6:56 PM50 °FPassing clouds.No wind80%29.86 "Hg10 mi
5:56 PM52 °FLight rain. Mostly cloudy.No wind75%29.85 "Hg10 mi
4:56 PM53 °FPartly sunny.6 mph66%29.83 "Hg10 mi
3:56 PM55 °FPartly sunny.10 mph55%29.83 "Hg10 mi
2:56 PM59 °FSunny.5 mph56%29.80 "Hg10 mi
1:56 PM56 °FPartly sunny.6 mph62%29.80 "Hg10 mi
12:56 PM56 °FPartly sunny.6 mph60%29.81 "Hg10 mi
11:56 AM58 °FSunny.3 mph65%29.82 "Hg10 mi
10:56 AM53 °FLight rain. Mostly cloudy.6 mph77%29.83 "Hg10 mi
9:56 AM56 °FScattered clouds.5 mph67%29.81 "Hg10 mi
8:56 AM54 °FScattered clouds.3 mph69%29.80 "Hg10 mi
7:56 AM51 °FScattered clouds.No wind83%29.79 "Hg10 mi
6:56 AM48 °FSunny.3 mph83%29.77 "Hg10 mi
5:56 AM50 °FLight rain. Overcast.No wind80%29.77 "Hg7 mi
4:56 AM46 °FPassing clouds.3 mph79%29.76 "Hg10 mi
3:56 AM50 °FPassing clouds.5 mph74%29.75 "Hg10 mi
2:56 AM51 °FClear.No wind71%29.76 "Hg10 mi
1:56 AM51 °FClear.6 mph71%29.78 "Hg10 mi
Weather by CustomWeather, © 2015

See weather overviewHow to use our weather pages